Time,TemperatureF,DewpointF,PressureIn,WindDirection,WindDirectionDegrees,WindSpeedMPH,WindSpeedGustMPH,Humidity,HourlyPrecipIn,Conditions,Clouds,dailyrainin,SolarRadiationWatts/m^2,SoftwareType,DateUTC
2013-11-15 00:01:00,45.0,45.0,-100.00,NNW,332,0.0,2.0,99,0.00,,,-99.99,0.000000,,2013-11-15 08:01:00,
2013-11-15 00:11:00,45.0,45.0,-100.00,NNW,332,0.0,2.0,99,0.00,,,-99.99,0.000000,,2013-11-15 08:11:00,
2013-11-15 00:42:00,45.0,45.0,-100.00,ENE,68,0.0,0.0,100,0.00,,,0.04,0.000000,,2013-11-15 08:42:00,
2013-11-15 00:52:00,45.0,45.0,-100.00,ENE,68,0.0,0.0,100,0.00,,,0.04,0.000000,,2013-11-15 08:52:00,
2013-11-15 01:02:00,45.0,45.0,-100.00,ENE,68,0.0,0.0,100,0.00,,,0.04,0.000000,,2013-11-15 09:02:00,
2013-11-15 01:11:00,45.0,45.0,-100.00,ENE,68,0.0,0.0,100,0.00,,,0.04,0.000000,,2013-11-15 09:11:00,
2013-11-15 01:43:00,45.0,45.0,-100.00,SE,141,0.0,2.0,99,0.01,,,0.05,0.000000,,2013-11-15 09:43:00,
2013-11-15 01:53:00,45.0,45.0,-100.00,SE,141,0.0,2.0,99,0.01,,,0.05,0.000000,,2013-11-15 09:53:00,
2013-11-15 02:03:00,45.0,45.0,-100.00,SE,141,0.0,2.0,99,0.01,,,0.05,0.000000,,2013-11-15 10:03:00,
2013-11-15 02:12:00,45.0,45.0,-100.00,SE,141,0.0,2.0,99,0.01,,,0.05,0.000000,,2013-11-15 10:12:00,
2013-11-15 02:43:00,44.0,44.0,-100.00,NE,36,2.0,4.0,99,0.00,,,0.05,0.000000,,2013-11-15 10:43:00,
2013-11-15 02:52:00,44.0,44.0,-100.00,NE,36,2.0,4.0,99,0.00,,,0.05,0.000000,,2013-11-15 10:52:00,
2013-11-15 03:02:00,44.0,44.0,-100.00,NE,36,2.0,4.0,99,0.00,,,0.05,0.000000,,2013-11-15 11:02:00,
2013-11-15 03:12:00,44.0,44.0,-100.00,NE,36,2.0,4.0,99,0.00,,,0.05,0.000000,,2013-11-15 11:12:00,
2013-11-15 03:42:00,44.0,44.0,-100.00,NNE,28,1.0,4.0,100,0.00,,,0.05,0.000000,,2013-11-15 11:42:00,
2013-11-15 03:52:00,44.0,44.0,-100.00,NNE,28,1.0,4.0,100,0.00,,,0.05,0.000000,,2013-11-15 11:52:00,
2013-11-15 04:02:00,44.0,44.0,-100.00,NNE,28,1.0,4.0,100,0.00,,,0.05,0.000000,,2013-11-15 12:02:00,
2013-11-15 04:11:00,44.0,44.0,-100.00,NNE,28,1.0,4.0,100,0.00,,,0.05,0.000000,,2013-11-15 12:11:00,
2013-11-15 04:42:00,44.0,44.0,-100.00,NNE,23,2.0,4.0,100,0.00,,,0.05,0.000000,,2013-11-15 12:42:00,
2013-11-15 04:52:00,44.0,44.0,-100.00,NNE,23,2.0,4.0,100,0.00,,,0.05,0.000000,,2013-11-15 12:52:00,
2013-11-15 05:01:00,44.0,44.0,-100.00,NNE,23,2.0,4.0,100,0.00,,,0.05,0.000000,,2013-11-15 13:01:00,
2013-11-15 05:11:00,44.0,44.0,-100.00,NNE,23,2.0,4.0,100,0.00,,,0.05,0.000000,,2013-11-15 13:11:00,
2013-11-15 05:42:00,43.0,43.0,-100.00,NE,47,1.0,4.0,100,0.00,,,-99.99,0.000000,,2013-11-15 13:42:00,
2013-11-15 05:52:00,43.0,43.0,-100.00,NE,47,1.0,4.0,100,0.00,,,-99.99,0.000000,,2013-11-15 13:52:00,
2013-11-15 06:01:00,43.0,43.0,-100.00,NE,47,1.0,4.0,100,0.00,,,-99.99,0.000000,,2013-11-15 14:01:00,
2013-11-15 06:11:00,43.0,43.0,-100.00,NE,47,1.0,4.0,100,0.00,,,-99.99,0.000000,,2013-11-15 14:11:00,
2013-11-15 06:42:00,42.0,42.0,-100.00,NE,46,2.0,4.0,100,0.00,,,0.04,0.000000,,2013-11-15 14:42:00,
2013-11-15 06:52:00,42.0,42.0,-100.00,NE,46,2.0,4.0,100,0.00,,,0.04,0.000000,,2013-11-15 14:52:00,
2013-11-15 07:02:00,42.0,42.0,-100.00,NE,46,2.0,4.0,100,0.00,,,0.04,0.000000,,2013-11-15 15:02:00,
2013-11-15 07:11:00,42.0,42.0,-100.00,NE,46,2.0,4.0,100,0.00,,,0.04,0.000000,,2013-11-15 15:11:00,
2013-11-15 07:43:00,42.0,42.0,-100.00,ENE,66,1.0,3.0,100,0.00,,,0.04,1.000000,,2013-11-15 15:43:00,
2013-11-15 07:53:00,42.0,42.0,-100.00,ENE,66,1.0,3.0,100,0.00,,,0.04,1.000000,,2013-11-15 15:53:00,
2013-11-15 08:03:00,42.0,42.0,-100.00,ENE,66,1.0,3.0,100,0.00,,,0.04,1.000000,,2013-11-15 16:03:00,
2013-11-15 08:12:00,42.0,42.0,-100.00,ENE,66,1.0,3.0,100,0.00,,,0.04,1.000000,,2013-11-15 16:12:00,
2013-11-15 08:43:00,42.0,42.0,-100.00,ENE,59,1.0,3.0,100,0.00,,,0.04,48.000000,,2013-11-15 16:43:00,
2013-11-15 08:53:00,42.0,42.0,-100.00,ENE,59,1.0,3.0,100,0.00,,,0.04,48.000000,,2013-11-15 16:53:00,
2013-11-15 09:03:00,42.0,42.0,-100.00,ENE,59,1.0,3.0,100,0.00,,,0.04,48.000000,,2013-11-15 17:03:00,
2013-11-15 09:12:00,42.0,42.0,-100.00,ENE,59,1.0,3.0,100,0.00,,,0.04,48.000000,,2013-11-15 17:12:00,
2013-11-15 09:42:00,44.0,44.0,-100.00,NE,40,2.0,4.0,99,0.00,,,0.04,144.000000,,2013-11-15 17:42:00,
2013-11-15 09:52:00,44.0,44.0,-100.00,NE,40,2.0,4.0,99,0.00,,,0.04,144.000000,,2013-11-15 17:52:00,
2013-11-15 10:02:00,44.0,44.0,-100.00,NE,40,2.0,4.0,99,0.00,,,0.04,144.000000,,2013-11-15 18:02:00,
2013-11-15 10:12:00,44.0,44.0,-100.00,NE,40,2.0,4.0,99,0.00,,,0.04,144.000000,,2013-11-15 18:12:00,
2013-11-15 10:42:00,46.0,46.0,-100.00,ENE,61,1.0,3.0,99,0.00,,,0.04,247.000000,,2013-11-15 18:42:00,
2013-11-15 10:52:00,46.0,46.0,-100.00,ENE,61,1.0,3.0,99,0.00,,,0.04,247.000000,,2013-11-15 18:52:00,
2013-11-15 11:02:00,46.0,46.0,-100.00,ENE,61,1.0,3.0,99,0.00,,,0.04,247.000000,,2013-11-15 19:02:00,
2013-11-15 11:11:00,46.0,46.0,-100.00,ENE,61,1.0,3.0,99,0.00,,,0.04,247.000000,,2013-11-15 19:11:00,
2013-11-15 11:42:00,47.0,47.0,-100.00,NE,53,2.0,3.0,99,0.00,,,0.04,309.000000,,2013-11-15 19:42:00,
2013-11-15 11:52:00,47.0,47.0,-100.00,NE,53,2.0,3.0,99,0.00,,,0.04,309.000000,,2013-11-15 19:52:00,
2013-11-15 12:01:00,47.0,47.0,-100.00,NE,53,2.0,3.0,99,0.00,,,0.04,309.000000,,2013-11-15 20:01:00,
2013-11-15 12:11:00,47.0,47.0,-100.00,NE,53,2.0,3.0,99,0.00,,,0.04,309.000000,,2013-11-15 20:11:00,
2013-11-15 12:42:00,50.0,48.0,-100.00,ENE,64,2.0,4.0,93,0.00,,,0.04,340.000000,,2013-11-15 20:42:00,
2013-11-15 12:52:00,50.0,48.0,-100.00,ENE,64,2.0,4.0,93,0.00,,,0.04,340.000000,,2013-11-15 20:52:00,
2013-11-15 13:02:00,50.0,48.0,-100.00,ENE,64,2.0,4.0,93,0.00,,,0.04,340.000000,,2013-11-15 21:02:00,
2013-11-15 13:12:00,50.0,48.0,-100.00,ENE,64,2.0,4.0,93,0.00,,,0.04,340.000000,,2013-11-15 21:12:00,
2013-11-15 13:13:00,49.0,46.0,-100.00,ENE,63,1.0,4.0,91,0.00,,,0.04,288.000000,,2013-11-15 21:13:00,
2013-11-15 13:43:00,49.0,46.0,-100.00,ENE,63,1.0,4.0,91,0.00,,,0.04,288.000000,,2013-11-15 21:43:00,
2013-11-15 13:54:00,49.0,46.0,-100.00,ENE,63,1.0,4.0,91,0.00,,,0.04,288.000000,,2013-11-15 21:54:00,
2013-11-15 14:03:00,49.0,46.0,-100.00,ENE,63,1.0,4.0,91,0.00,,,0.04,288.000000,,2013-11-15 22:03:00,
2013-11-15 14:43:00,51.0,45.0,-100.00,West,279,1.0,3.0,81,0.00,,,0.04,194.000000,,2013-11-15 22:43:00,
2013-11-15 14:53:00,51.0,45.0,-100.00,West,279,1.0,3.0,81,0.00,,,0.04,194.000000,,2013-11-15 22:53:00,
2013-11-15 15:02:00,51.0,45.0,-100.00,West,279,1.0,3.0,81,0.00,,,0.04,194.000000,,2013-11-15 23:02:00,
2013-11-15 15:11:00,51.0,45.0,-100.00,West,279,1.0,3.0,81,0.00,,,0.04,194.000000,,2013-11-15 23:11:00,
2013-11-15 15:43:00,50.0,45.0,-100.00,NW,313,1.0,4.0,82,0.00,,,0.04,177.000000,,2013-11-15 23:43:00,
2013-11-15 15:52:00,50.0,45.0,-100.00,NW,313,1.0,4.0,82,0.00,,,0.04,177.000000,,2013-11-15 23:52:00,
2013-11-15 16:03:00,50.0,45.0,-100.00,NW,313,1.0,4.0,82,0.00,,,0.04,177.000000,,2013-11-16 00:03:00,
2013-11-15 16:11:00,50.0,45.0,-100.00,NW,313,1.0,4.0,82,0.00,,,0.04,177.000000,,2013-11-16 00:11:00,
2013-11-15 16:42:00,47.0,44.0,-100.00,WSW,241,2.0,4.0,90,0.00,,,0.02,67.000000,,2013-11-16 00:42:00,
2013-11-15 16:52:00,47.0,44.0,-100.00,WSW,241,2.0,4.0,90,0.00,,,0.02,67.000000,,2013-11-16 00:52:00,
2013-11-15 17:01:00,47.0,44.0,-100.00,WSW,241,2.0,4.0,90,0.00,,,0.02,67.000000,,2013-11-16 01:01:00,
2013-11-15 17:11:00,47.0,44.0,-100.00,WSW,241,2.0,4.0,90,0.00,,,0.02,67.000000,,2013-11-16 01:11:00,
2013-11-15 17:42:00,46.0,44.0,-100.00,West,266,1.0,3.0,94,0.00,,,0.02,7.000000,,2013-11-16 01:42:00,
2013-11-15 17:52:00,46.0,44.0,-100.00,West,266,1.0,3.0,94,0.00,,,0.02,7.000000,,2013-11-16 01:52:00,
2013-11-15 18:02:00,46.0,44.0,-100.00,West,266,1.0,3.0,94,0.00,,,0.02,7.000000,,2013-11-16 02:02:00,
2013-11-15 18:11:00,46.0,44.0,-100.00,West,266,1.0,3.0,94,0.00,,,0.02,7.000000,,2013-11-16 02:11:00,
2013-11-15 18:42:00,46.0,44.0,-100.00,SSW,201,2.0,3.0,93,0.00,,,0.02,0.000000,,2013-11-16 02:42:00,
2013-11-15 18:52:00,46.0,44.0,-100.00,SSW,201,2.0,3.0,93,0.00,,,0.02,0.000000,,2013-11-16 02:52:00,
2013-11-15 19:02:00,46.0,44.0,-100.00,SSW,201,2.0,3.0,93,0.00,,,0.02,0.000000,,2013-11-16 03:02:00,
2013-11-15 19:11:00,46.0,44.0,-100.00,SSW,201,2.0,3.0,93,0.00,,,0.02,0.000000,,2013-11-16 03:11:00,
2013-11-15 19:13:00,45.0,43.0,-100.00,SSW,196,3.0,4.0,91,0.00,,,0.02,0.000000,,2013-11-16 03:13:00,
2013-11-15 19:44:00,45.0,43.0,-100.00,SSW,196,3.0,4.0,91,0.00,,,0.02,0.000000,,2013-11-16 03:44:00,
2013-11-15 19:55:00,45.0,43.0,-100.00,SSW,196,3.0,4.0,91,0.00,,,0.02,0.000000,,2013-11-16 03:55:00,
2013-11-15 20:04:00,45.0,43.0,-100.00,SSW,196,3.0,4.0,91,0.00,,,0.02,0.000000,,2013-11-16 04:04:00,
2013-11-15 20:13:00,45.0,43.0,-100.00,SSW,194,5.0,6.0,92,0.00,,,0.02,0.000000,,2013-11-16 04:13:00,
2013-11-15 20:43:00,45.0,43.0,-100.00,SSW,194,5.0,6.0,92,0.00,,,0.02,0.000000,,2013-11-16 04:43:00,
2013-11-15 20:53:00,45.0,43.0,-100.00,SSW,194,5.0,6.0,92,0.00,,,0.02,0.000000,,2013-11-16 04:53:00,
2013-11-15 21:03:00,45.0,43.0,-100.00,SSW,194,5.0,6.0,92,0.00,,,0.02,0.000000,,2013-11-16 05:03:00,
2013-11-15 21:13:00,45.0,43.0,-100.00,SSW,198,4.0,6.0,91,0.00,,,0.01,0.000000,,2013-11-16 05:13:00,
2013-11-15 21:44:00,45.0,43.0,-100.00,SSW,198,4.0,6.0,91,0.00,,,0.01,0.000000,,2013-11-16 05:44:00,
2013-11-15 21:52:00,45.0,43.0,-100.00,SSW,198,4.0,6.0,91,0.00,,,0.01,0.000000,,2013-11-16 05:52:00,
2013-11-15 22:02:00,45.0,43.0,-100.00,SSW,198,4.0,6.0,91,0.00,,,0.01,0.000000,,2013-11-16 06:02:00,
2013-11-15 22:42:00,45.0,44.0,-100.00,SSW,208,5.0,9.0,98,0.05,,,0.06,0.000000,,2013-11-16 06:42:00,
2013-11-15 22:52:00,45.0,44.0,-100.00,SSW,208,5.0,9.0,98,0.05,,,0.06,0.000000,,2013-11-16 06:52:00,
2013-11-15 23:01:00,45.0,44.0,-100.00,SSW,208,5.0,9.0,98,0.05,,,0.06,0.000000,,2013-11-16 07:01:00,
2013-11-15 23:11:00,45.0,44.0,-100.00,SSW,208,5.0,9.0,98,0.05,,,0.06,0.000000,,2013-11-16 07:11:00,
2013-11-15 23:42:00,45.0,45.0,-100.00,SSW,202,5.0,9.0,99,0.03,,,0.09,0.000000,,2013-11-16 07:42:00,
2013-11-15 23:52:00,45.0,45.0,-100.00,SSW,202,5.0,9.0,99,0.03,,,0.09,0.000000,,2013-11-16 07:52:00,